Kansas City International, MO

4:24 AM CDT on September 26, 2017 (GMT -0500)
Kansas City International

Weather History for KMCI - November, 2013

Change the Weather History Date:

Thursday, November 21, 2013

  Actual Average Record
Temperature  
Mean Temperature 39 °F 41 °F  
Max Temperature 49 °F 50 °F 78 °F (1966)
Min Temperature 28 °F 31 °F 5 °F (1937)
Degree Days  
Heating Degree Days 26 24  
Month to date heating degree days 395 403  
Since 1 July heating degree days 743 763  
Cooling Degree Days 0 0  
Month to date cooling degree days 0 0  
Year to date cooling degree days 1345 1358  
Moisture  
Dew Point 33 °F    
Average Humidity 80    
Maximum Humidity 89    
Minimum Humidity 71    
Precipitation  
Precipitation 0.25 in 0.06 in 1.90 in (1934)
Month to date precipitation 1.43 1.55  
Year to date precipitation 33.68 36.73  
Snow  
Snow 0.00 in 0.00 in 1.80 in (1906)
Month to date snowfall 0.0 0.5  
Since 1 July snowfall 0.0 0.7  
Since 1 September snowfall 0.0 0.7  
Snow Depth 0.00 in    
Sea Level Pressure  
Sea Level Pressure 30.20 in    
Wind  
Wind Speed 11 mph (North)    
Max Wind Speed 23 mph    
Max Gust Speed 29 mph    
Visibility 6 miles    
Events Rain    
T = Trace of Precipitation, MM = Missing Value Source: NWS Daily Summary

Daily Weather History Graph

Daily Weather History Graph

Search for Another Location

Airport or City:

Trip Planner

Search our weather history database for the weather conditions in past years. The results will help you decide how hot, cold, wet, or windy it might be!

Date:

Astronomy

Nov. 21, 2013 Rise Set
Actual Time 7:09 AM CST 4:59 PM CST
Civil Twilight 6:40 AM CST 5:29 PM CST
Nautical Twilight 6:07 AM CST 6:01 PM CST
Astronomical Twilight 5:35 AM CST 6:33 PM CST
Moon 8:37 PM CST (11/21) 10:16 AM CST (11/21)
Length of Visible Light 10h 48m
Length of Day
9h 50m
Waning Gibbous, 85% of the Moon is Illuminated
Nov 21
Waning Gibbous
Nov 25
Last Quarter
Dec 2
New
Dec 9
First Quarter
Dec 17
Full

Hourly Weather History & Observations

Time (CST) Temp. Windchill Dew Point Humidity Pressure Visibility Wind Dir Wind Speed Gust Speed Precip Events Conditions
12:53 AM 46.9 °F - 39.0 °F 74% 29.98 in 10.0 mi SSE 5.8 mph - N/A   Overcast
1:53 AM 48.0 °F - 39.0 °F 71% 29.98 in 10.0 mi SE 5.8 mph - N/A   Overcast
2:53 AM 48.0 °F - 39.0 °F 71% 29.99 in 10.0 mi East 4.6 mph - N/A   Overcast
3:53 AM 46.9 °F - 39.0 °F 74% 29.99 in 10.0 mi ESE 9.2 mph - N/A   Overcast
4:53 AM 48.0 °F - 39.9 °F 74% 29.99 in 10.0 mi ESE 3.5 mph - N/A   Overcast
5:53 AM 48.0 °F - 39.9 °F 74% 29.99 in 10.0 mi ESE 5.8 mph - N/A   Overcast
6:53 AM 48.0 °F - 39.9 °F 74% 30.03 in 10.0 mi Calm Calm - N/A   Overcast
7:53 AM 46.9 °F - 41.0 °F 80% 30.06 in 10.0 mi NNW 4.6 mph - N/A   Overcast
8:53 AM 45.0 °F 40.1 °F 39.0 °F 80% 30.09 in 10.0 mi NNW 9.2 mph - 0.00 in Rain Light Rain
9:53 AM 43.0 °F 37.7 °F 39.0 °F 86% 30.12 in 3.0 mi NNW 9.2 mph - 0.06 in Rain Light Rain
10:33 AM 42.8 °F 35.8 °F 39.2 °F 87% 30.12 in 6.0 mi North 13.8 mph - 0.01 in Rain Light Rain
10:53 AM 43.0 °F 37.2 °F 39.0 °F 86% 30.14 in 6.0 mi NNW 10.4 mph - 0.01 in Rain Light Rain
11:07 AM 42.8 °F 36.2 °F 39.2 °F 87% 30.12 in 6.0 mi North 12.7 mph - 0.00 in Rain Light Rain
11:53 AM 41.0 °F 33.9 °F 37.0 °F 86% 30.13 in 4.0 mi North 12.7 mph - 0.00 in Rain Light Rain
12:53 PM 41.0 °F 33.5 °F 37.9 °F 89% 30.13 in 5.0 mi North 13.8 mph - 0.02 in Rain Light Rain
1:53 PM 39.9 °F 32.1 °F 37.0 °F 89% 30.13 in 6.0 mi North 13.8 mph - 0.00 in Rain Light Rain
2:53 PM 39.0 °F 31.0 °F 36.0 °F 89% 30.15 in 7.0 mi North 13.8 mph - 0.00 in   Light Drizzle
3:53 PM 37.0 °F 27.4 °F 34.0 °F 89% 30.19 in 4.0 mi North 17.3 mph - 0.00 in   Light Drizzle
4:15 PM 35.6 °F 25.2 °F 33.8 °F 93% 30.18 in 2.0 mi North 18.4 mph 25.3 mph 0.03 in Rain Light Rain
4:53 PM 34.0 °F 24.2 °F 30.9 °F 89% 30.23 in 3.0 mi NNW 15.0 mph - 0.06 in Rain Light Rain
5:53 PM 32.0 °F 22.1 °F 28.9 °F 88% 30.27 in 2.5 mi North 13.8 mph 26.5 mph 0.01 in   Light Freezing Drizzle
6:20 PM 32.0 °F 21.2 °F 28.4 °F 87% 30.27 in 2.5 mi North 16.1 mph 28.8 mph 0.03 in Rain Light Freezing Rain
6:47 PM 32.0 °F 21.6 °F 28.4 °F 87% 30.28 in 3.0 mi NNW 15.0 mph - 0.06 in Rain Light Freezing Rain
6:53 PM 32.0 °F 22.1 °F 28.0 °F 85% 30.30 in 3.0 mi North 13.8 mph 21.9 mph 0.06 in Rain Light Freezing Rain
7:53 PM 30.9 °F 19.8 °F 27.0 °F 85% 30.33 in 3.0 mi North 16.1 mph - 0.02 in Rain Light Freezing Rain
8:22 PM 30.2 °F 18.9 °F 26.6 °F 86% 30.33 in 3.0 mi NNW 16.1 mph 24.2 mph 0.00 in Rain Light Freezing Rain
8:43 PM 30.2 °F 19.3 °F 26.6 °F 86% 30.34 in 3.0 mi NNW 15.0 mph - 0.00 in Rain Light Freezing Rain
8:53 PM 30.0 °F 18.7 °F 26.1 °F 85% 30.36 in 3.0 mi NNW 16.1 mph 25.3 mph 0.00 in Rain Light Freezing Rain
9:21 PM 30.2 °F 18.5 °F 26.6 °F 86% 30.35 in 3.0 mi North 17.3 mph 25.3 mph 0.01 in   Light Freezing Drizzle
9:49 PM 30.2 °F 19.3 °F 26.6 °F 86% 30.37 in 3.0 mi NNW 15.0 mph - 0.01 in Rain Light Freezing Rain
9:53 PM 30.0 °F 18.7 °F 26.1 °F 85% 30.39 in 3.0 mi NNW 16.1 mph 21.9 mph 0.01 in Rain Light Freezing Rain
10:17 PM 28.4 °F 17.0 °F 24.8 °F 86% 30.38 in 8.0 mi NNW 15.0 mph 23.0 mph 0.00 in   Light Freezing Drizzle
10:28 PM 28.4 °F 16.2 °F 24.8 °F 86% 30.39 in 10.0 mi NNW 17.3 mph 24.2 mph 0.00 in   Overcast
10:53 PM 28.0 °F 17.0 °F 24.1 °F 85% 30.42 in 8.0 mi North 13.8 mph 25.3 mph 0.00 in   Overcast
11:53 PM 28.0 °F 15.7 °F 23.0 °F 81% 30.45 in 10.0 mi North 17.3 mph 23.0 mph N/A   Overcast